C/2012 V2 ( LINEAR )

Japanese version
Home page
Updated on March 24, 2014

---------------------------------------------------------------------

* Profile

Discovery Date November 5, 2012
Magnitude 19.0 mag
Discoverer Lincoln Laboratory Near-Earth Asteroid Research project

* Pictures

* Orbital Elements

Epoch 2013 Aug. 16.0 TT = JDT 2456520.5
T 2013 Aug. 16.47684 TT                                 MPC
q   1.4549406            (2000.0)            P               Q
z  +0.0015603      Peri.  217.30703     -0.12439341     -0.38817442
 +/-0.0000006      Node   262.16478     +0.97457065     -0.22066831
e   0.9977299      Incl.   67.18438     -0.18638219     -0.89477713
From 835 observations 2012 Nov. 5-2014 Feb. 18, mean residual 0".7.

* Finding Charts

* Magnitudes Graph

        m1 = 9.0 + 5 log d + 10.0 log r  [   ,-125]  (             - 2013 Apr. 13)
        m1 = 2.0 + 5 log d + 30.0 log r  [-125,  0]  (2013 Apr. 13 - 2013 Aug. 16)
        m1 = 3.6 + 5 log d + 20.0 log r  [   0,   ]  (2013 Aug. 16 -             )

---------------------------------------------------------------------

The orbital elements are published on M.P.E.C. 2014-D14.
The charts are made with StellaNavigator Ver.8 (AstroArts).
The magnitudes graphs are made with Comet for Windows.

---------------------------------------------------------------------

Copyright(C) Seiichi Yoshida (comet@aerith.net). All rights reserved.